Weather in Mortki

Russia / Ivanovo Oblast     56°51′42″N   43°06′45″E
temp.,
°C
wind,
m/s
gust,
m/s
humid.,
%
clouds,
%
prec.,
mm/h
press.,
hPa
HPBL,
m
3 march, wed
wed300:00−5nw513906 0.0 1004487
03:00−7nw5139126 0.0 1006498
06:00−8nw5129289 0.0 1007506
09:00−7wnw5129194 0.1 1009545
12:00−5wnw61089100 0.0 1009650
15:00−3wnw598687 0.1 1009798
18:00−4wsw4119492 0.1 1006443
21:00−3w6139196 0.2 1005741
4 march, thu
thu400:00−3w51294100 0.2 1002719
03:00−3wsw61295100 0.5 1000707
06:00−2wsw61393100 0.5 996775
09:000w61288100 0.9 9951226
12:00−1wnw7128133 0.1 9961142
15:00−3wnw6108551 0.1 997857
18:00−5w3892100 0.0 998187
21:00−8nw3395100 0.1 100061
5 march, fri
fri500:00−11nnw239470 0.0 100127
03:00−12n239677 0.0 100236
06:00−14n339677 0.0 100444
09:00−12nnw359340 0.0 1005212
12:00−8nnw358236 0.0 1007539
15:00−6nnw247918 0.0 1008681
18:00−10w239139 0.0 100923
21:00−12wsw239020 0.0 101027
6 march, sat
sat600:00−11wsw359499 0.0 101188
03:00−13wsw339792 0.0 101277
06:00−14wnw349886 0.0 101279
09:00−14nnw369273 0.1 1013257
12:00−11nw35801 0.0 1014760
15:00−9wnw468043 0.0 1013799
18:00−12w379290 0.0 1012162
21:00−13wsw489487 0.0 1012200
7 march, sun
sun700:00−14sw489244 0.0 1011172
03:00−14ssw499538 0.0 1009200
06:00−11ssw6129095 0.0 1005437
09:00−9ssw7159097 0.1 1001783
12:00−6ssw81390100 0.6 9971070
15:00−4ssw81592100 1.4 9921116
18:00−4ssw71494100 2.4 9881039
21:00−7w61379100 3.6 989694